Miscellaneous Local Product
Issued by NWS Hastings, NE

Home | Current Version | Previous Version | Text Only | Print | Product List | Glossary On
Versions: 1 2 3 4 5 6 7 8 9 10 11 12 13 14 15 16 17 18 19 20 21 22 23 24 25 26 27 28 29 30 31 32 33 34 35 36 37 38 39 40 41 42 43 44 45 46 47 48 49 50
000
AXUS43 KGID 281702
MISGRI

GID CWA HOURLY WEATHER ROUNDUP
NATIONAL WEATHER SERVICE HASTINGS NE
1200 PM CDT FRI AUG 28 2015

NOTE: "FAIR" INDICATES FEW OR NO CLOUDS BELOW 12,000 FEET WITH NO
SIGNIFICANT WEATHER AND/OR OBSTRUCTIONS TO VISIBILITY.

...SOUTH CENTRAL NEBRASKA...

CITY           SKY/WX    TMP DP  RH WIND       PRES   REMARKS
GRAND ISLAND   PTSUNNY   77  63  61 N14       29.93R
HASTINGS       MOSUNNY   74  67  78 NW9       29.93S
KEARNEY        CLOUDY    75  63  64 N9        29.95R
ORD            CLOUDY    70  63  78 N14       29.95R
YORK           PTSUNNY   73  68  83 NW7       29.90S
AURORA         CLOUDY    74  67  78 NW9       29.91S
LEXINGTON      PTSUNNY   76  65  69 N15G21    29.99R
HOLDREGE       CLOUDY    73  64  73 N3        29.97R
HEBRON         CLOUDY    74  65  73 NW10G16   29.91R

...NEBRASKA PANHANDLE...

CITY           SKY/WX    TMP DP  RH WIND       PRES   REMARKS
CHADRON        SUNNY     81  51  35 NW7       30.08S
ALLIANCE       SUNNY     81  52  36 N13       30.10R
SCOTTSBLUFF    MOSUNNY   77  53  43 W14       30.14R
SIDNEY         SUNNY     82  50  32 N16       30.15R

...WESTERN AND NORTH CENTRAL NEBRASKA...

CITY           SKY/WX    TMP DP  RH WIND       PRES   REMARKS
VALENTINE      PTSUNNY   74  64  71 N9        30.03
AINSWORTH      CLOUDY    71  65  82 N10       30.02R
ONEILL         CLOUDY    67  65  92 N14       29.98R
BROKEN BOW     CLOUDY    71  64  78 N13       29.99R
IMPERIAL       SUNNY     85  52  32 NW15      30.05R
NORTH PLATTE   MOSUNNY   75  63  66 N12G21    30.03R
MCCOOK         SUNNY     83  61  47 N17       30.01R

...EASTERN NEBRASKA...

CITY           SKY/WX    TMP DP  RH WIND       PRES   REMARKS
NORFOLK        CLOUDY    70  64  81 N14       29.89R
SO SIOUX CITY  CLOUDY    69  64  84 N8        29.84S
TEKAMAH        CLOUDY    73  70  90 SW5       29.83S
COLUMBUS       CLOUDY    72  63  73 NW10      29.89R
ALBION         CLOUDY    69  62  80 N12G21    29.92R
OMAHA EPPLEY   CLOUDY    74  68  81 S9        29.85R
OFFUTT AFB     DRIZZLE   74  69  85 S8        29.84R
MILLARD        CLOUDY    75  69  82 SW3       29.85R
LINCOLN        CLOUDY    76  68  76 W7        29.87S
NEBRASKA CITY  CLOUDY    78  64  61 SW17G26   29.87R
BEATRICE       CLOUDY    77  69  77 W9        29.88R
FALLS CITY     PTSUNNY   79  67  66 S15G25    29.89S

...NORTHERN KANSAS...

CITY           SKY/WX    TMP DP  RH WIND       PRES   REMARKS
GOODLAND       SUNNY     85  50  29 NW13G21   30.08S
HILL CITY      SUNNY     84  61  45 N15       29.99R
NORTON         PTSUNNY   79  61  53 N8        29.98S
PHILLIPSBURG   PTSUNNY   79  66  65 NW9       29.97R
SMITH CENTER   CLOUDY    73  66  78 NW9       29.95R
HAYS           SUNNY     84  61  45 NW13      29.96S
RUSSELL        SUNNY     84  67  56 NW13      29.93R
CONCORDIA      CLOUDY    77  69  76 NW9       29.91R
SALINA         SUNNY     84  69  60 SW7       29.89F
TOPEKA         PTSUNNY   79  68  69 S13       29.92F



USA.gov is the U.S. government's official web portal to all federal, state and local government web resources and services.